Location: *
(43.6333°N, 11.9833°E)
Time: 21:32:06
(UTC+00:00)

Daily predictions for brighter satellites

Satellite Brightness Start Highest point End
(mag) Time Altitude Azimuth Time Altitude Azimuth Time Altitude Azimuth
ATLAS 5 CENTAUR R/B 2.8 16:00:15 10° NW 16:06:07 73° WSW 16:12:47 10° SSE
FENGYUN 3A 4.4 16:02:19 10° S 16:07:41 62° WSW 16:13:06 10° NNW
USA 215 4.4 16:03:13 10° NE 16:08:32 27° N 16:13:51 10° WNW
H-2A R/B 3.3 16:08:15 10° SE 16:11:45 35° ENE 16:15:14 10° N
Okean O Rocket 2.4 16:07:57 10° S 16:12:15 58° W 16:16:35 10° NNW
Cosmos 2369 3.9 16:07:47 10° S 16:13:18 58° ESE 16:18:53 10° NNE
Cosmos 923 Rocket 4.2 16:09:37 10° S 16:14:41 54° ESE 16:19:45 10° NNE
NOSS 2-3 (E) 3.9 16:10:32 10° SSW 16:14:43 54° ESE 16:19:33 10° NE
Cosmos 1869 3.2 16:10:57 10° S 16:14:53 80° E 16:18:49 10° N
Cosmos 1666 Rocket 4.0 16:11:49 10° N 16:15:55 38° ENE 16:19:57 10° SE
Cosmos 2221 3.7 16:12:30 10° SSW 16:16:40 46° WNW 16:20:54 10° N
Cosmos 1697 Rocket 2.8 16:11:42 10° S 16:17:13 58° ESE 16:22:46 10° NNE
USA 229 DEB 4.1 16:11:21 10° SW 16:17:51 63° NW 16:24:42 10° NNE
USA 229 4.1 16:11:27 10° SW 16:17:57 63° NW 16:24:48 10° NNE
ASTEX 1 4.0 16:13:33 10° N 16:18:31 64° W 16:23:25 10° SSW
Cosmos 2082 3.7 16:14:40 10° NNW 16:20:18 71° ENE 16:25:54 10° SSE
COSMO-SKYMED 1 4.1 16:17:34 10° NE 16:20:31 18° E 16:23:26 10° SE
Cosmos 2056 Rocket 4.4 16:16:19 10° N 16:20:38 26° ENE 16:24:59 10° ESE
NOSS 3-1 (C) 3.8 16:15:11 10° SW 16:20:38 62° NW 16:26:59 10° NNE
ERBS 3.7 16:18:35 10° W 16:21:36 31° NNW 16:24:38 10° NNE
NOSS 3-1 (A) 3.4 16:17:34 10° SW 16:23:04 88° NW 16:29:26 10° NE
YAOGAN 6 4.2 16:21:40 10° E 16:23:39 15° ENE 16:25:38 10° NNE
BREEZE-M DEB (TANK) 4.1 16:20:03 10° WSW 16:23:49 86° NNW 16:36:55 10° ENE
NOSS 2-3 (D) 3.8 16:20:11 10° SSW 16:24:25 62° ESE 16:29:19 10° NE
ALOS 3.9 16:20:11 10° SSW 16:24:31 39° W 16:28:55 10° NNW
BREEZE-M DEB (TANK) 3.8 16:13:52 10° W 16:24:40 51° NNW 16:27:59 11° ENE
SeaSat 1 3.4 16:21:07 10° ESE 16:25:09 26° NE 16:29:13 10° N
CZ-4B R/B 4.4 16:20:38 10° S 16:25:43 47° W 16:30:49 10° NNW
IRS-1C Rocket 4.1 16:21:04 10° SSE 16:26:20 79° ENE 16:31:38 10° NNW
Cosmos 1656 4.0 16:20:53 10° SSW 16:26:24 70° WNW 16:31:53 10° NNE
Cosmos 1464 Rocket 4.0 16:22:15 10° N 16:28:18 57° ENE 16:34:19 10° SSE
SMAP 3.0 16:23:59 10° SSE 16:28:36 69° ENE 16:33:15 10° N
Cosmos 2360 4.5 16:25:28 10° S 16:30:56 49° ESE 16:36:25 10° NE
Cosmos 2278 3.8 16:25:23 10° S 16:30:56 59° ESE 16:36:33 10° NNE
AQUARIUS 4.1 16:33:48 10° SSE 16:38:18 78° ENE 16:42:48 10° N
Cosmos 1072 Rocket 4.4 16:33:44 10° N 16:39:55 77° E 16:46:08 10° SSE
Cosmos 397 4.4 16:37:15 10° NNW 16:41:19 68° NE 16:45:38 10° SE
YAOGAN 1 3.7 16:40:10 10° ESE 16:43:27 21° ENE 16:46:44 10° NNE
Envisat 3.2 16:40:22 10° SE 16:45:14 49° ENE 16:50:09 10° N
CENTAUR R/B 4.4 16:41:07 10° NNW 16:46:16 19° NNE 16:50:43 13° NE
Cosmos 1470 Rocket 4.0 16:43:08 10° N 16:47:20 38° ENE 16:51:31 10° SE
Cosmos 1356 Rocket 4.5 16:45:15 10° SSW 16:49:18 48° WNW 16:53:27 10° N
COBE Rocket 3.7 16:52:56 10° NNE 16:57:42 87° E 17:02:21 10° SSW
Cosmos 158 Rocket 4.1 16:54:22 10° S 16:59:31 57° ESE 17:04:36 10° NNE
CZ-4 R/B 1.8 16:57:55 10° SE 17:01:45 39° ENE 17:05:32 10° N
NOSS 2-3 (C) 4.1 16:57:54 10° SW 17:02:13 61° NW 17:06:56 12° NNE
Cosmos 724 4.3 16:59:28 10° NW 17:05:20 82° WSW 17:11:06 10° SSE
CSL-04 Rocket 3.9 17:02:46 10° SE 17:07:45 42° ENE 17:12:43 10° N
SKYMED 2 3.6 17:04:39 10° NNE 17:08:56 56° E 17:13:12 10° S
Cosmos 1452 Rocket 4.4 17:04:39 10° N 17:09:06 27° ENE 17:10:09 25° ENE
ATLAS 3B R/B 4.3 17:05:26 10° NNW 17:09:13 15° NNE 17:11:21 13° NE
Cosmos 1606 3.2 17:06:32 10° SSE 17:09:57 34° E 17:10:39 32° ENE
Lacrosse 4 Rocket 3.2 17:07:31 10° WSW 17:11:00 27° NW 17:14:28 10° N
Cosmos 1371 Rocket 3.9 17:06:25 10° NNW 17:11:39 82° ENE 17:16:49 10° SSE
Geosat 3.9 17:07:11 12° NNE 17:11:50 72° ESE 17:16:51 10° SSW
Cosmos 1933 3.4 17:12:20 10° S 17:16:18 53° E 17:19:00 19° NNE
Cosmos 1633 4.5 17:13:49 10° NNW 17:17:06 32° W 17:20:21 10° SSW
Cosmos 1862 4.5 17:13:48 10° NNW 17:17:37 45° W 17:21:26 10° SSW
Meteor 1-20 Rocket 4.5 17:15:25 10° N 17:21:02 46° ENE 17:26:33 10° SSE
CZ-4 R/B 4.3 17:18:15 10° SSE 17:22:22 73° ENE 17:26:32 10° N
Cosmos 1980 Rocket 2.3 17:18:00 10° SSW 17:23:40 77° WNW 17:29:08 11° NNE
Meteor 1-25 Rocket 4.4 17:18:25 10° N 17:23:56 48° ENE 17:29:29 10° SSE
SL-16 R/B 2.8 17:19:13 10° SSE 17:24:14 34° ESE 17:25:11 32° E
Ariane Rocket 4.1 17:29:42 26° NE 17:29:42 26° NE 17:32:44 10° N
Cosmos 2034 Rocket 4.3 17:22:16 10° NNW 17:28:37 70° W 17:34:56 10° S
GEOS 3 Rocket 3.7 17:25:08 20° NE 17:28:49 81° NW 17:34:06 10° SW
APEX 4.0 17:26:03 10° SW 17:29:12 38° WNW 17:30:29 24° N
Okean-O 3.7 17:25:31 10° S 17:29:46 46° W 17:34:04 10° NNW
ISS -1.5 17:28:04 10° S 17:29:11 15° SSE 17:29:11 15° SSE
Cosmos 2322 Rocket 2.8 17:25:51 10° SSE 17:30:44 32° ESE 17:30:44 32° ESE
BREEZE-M DEB (TANK) 2.1 17:25:37 10° WSW 17:31:03 84° SSE 17:31:39 58° E
Cosmos 1151 Rocket 4.0 17:33:19 10° SSW 17:37:33 49° WNW 17:41:49 10° N
DELTA 2 R/B (1) 4.3 17:33:45 10° SW 17:38:54 39° SSE 17:40:22 33° SE
Timation 1 Rocket 4.3 17:33:10 10° NNW 17:39:03 57° ENE 17:41:45 32° ESE
GPS 2-04 Rocket1 4.2 17:37:46 10° SW 17:40:27 21° S 17:40:34 21° S
Cosmos 1634 Rocket 3.8 17:38:50 10° N 17:45:01 71° E 17:51:09 10° SSE
Cosmos 2263 Rocket 2.0 17:41:15 10° NNW 17:46:49 69° ENE 17:49:12 35° SE
Cosmos 2228 Rocket 3.1 17:45:54 10° S 17:50:22 84° W 17:52:41 29° N
USA 215 4.0 17:48:57 31° NE 17:50:24 35° NNE 17:56:11 10° NW
Cosmos 1933 Rocket 4.2 17:50:35 10° NNW 17:54:50 54° W 17:59:04 10° S
Cosmos 2142 Rocket 4.4 17:48:59 10° N 17:55:21 66° E 18:01:38 10° SSE
Cosmos 1400 Rocket 3.7 17:51:26 10° S 17:54:08 40° S 17:54:08 40° S
YAOGAN 6 4.1 17:53:38 10° SSW 17:56:51 35° W 18:00:06 10° NNW
COSMO-SKYMED 1 3.6 17:52:44 10° N 17:56:53 44° WNW 18:01:00 10° SW
Meteor 1-14 Rocket 4.2 17:54:00 10° N 17:59:59 68° ENE 18:03:37 25° SSE
Cosmos 2279 Rocket 3.9 17:55:57 10° N 18:02:06 59° ENE 18:02:41 57° ESE
SL-8 R/B 3.6 17:57:30 10° WSW 18:02:20 85° NNW 18:02:24 84° N
SeaSat 1 3.3 17:57:38 10° S 18:02:24 50° WSW 18:07:12 10° NW
BREEZE-M R/B 4.3 18:09:45 10° SW 18:12:47 32° SW 18:12:47 32° SW
COSMOS 2455 3.3 18:10:20 10° SSW 18:14:51 47° SSE 18:14:51 47° SSE
YAOGAN 1 4.0 18:15:17 10° SSW 18:19:18 37° W 18:23:21 10° NNW
CZ-4 R/B 4.2 18:34:04 10° SW 18:36:54 18° W 18:39:44 10° NW
CENTAUR R/B 3.7 18:31:47 10° NNW 18:37:54 40° NNE 18:37:54 40° NNE
Centaur D-1A AC-31 4.0 18:51:02 10° SSW 18:51:42 14° SSW 18:51:42 14° SSW
ATLAS 2AS CENTAUR R/B 4.0 18:48:14 10° SSW 18:52:07 32° S 18:52:07 32° S
ATLAS 3B R/B 4.1 18:55:39 10° NNW 18:58:36 25° N 18:58:36 25° N
USA 238 DEB 4.1 18:55:52 10° NW 19:01:32 59° NW 19:01:32 59° NW
USA 238 4.2 18:55:58 10° NW 19:01:36 59° NW 19:01:36 59° NW
NOSS 3-2 (A) 4.2 18:59:01 10° NW 19:05:08 64° NNW 19:05:08 64° NNW
SL-16 R/B 3.6 19:03:00 10° SW 19:07:07 35° W 19:07:07 35° W
Cosmos 2322 Rocket 3.9 19:09:28 10° SW 19:12:37 29° W 19:12:37 29° W
